Time,TemperatureF,DewpointF,PressureIn,WindDirection,WindDirectionDegrees,WindSpeedMPH,WindSpeedGustMPH,Humidity,HourlyPrecipIn,Conditions,Clouds,dailyrainin,SoftwareType,DateUTC
2013-12-31 00:03:00,22.1,11.1,30.01,WNW,292,1.1,-999.0,62,-99.99,,,0.00,Acu-Link.com,2013-12-31 05:03:00,
2013-12-31 00:18:00,22.3,12.3,30.00,East,90,0.0,-999.0,65,-99.99,,,0.00,Acu-Link.com,2013-12-31 05:18:00,
2013-12-31 00:33:00,22.3,12.7,30.00,SW,225,0.0,-999.0,66,-99.99,,,0.00,Acu-Link.com,2013-12-31 05:33:00,
2013-12-31 00:48:00,21.9,13.0,30.00,NW,315,0.0,-999.0,68,-99.99,,,0.00,Acu-Link.com,2013-12-31 05:48:00,
2013-12-31 01:04:00,22.3,12.3,30.00,SW,225,0.0,-999.0,65,-99.99,,,0.00,Acu-Link.com,2013-12-31 06:04:00,
2013-12-31 01:19:00,21.9,12.3,30.00,ENE,67,0.0,-999.0,66,-99.99,,,0.00,Acu-Link.com,2013-12-31 06:19:00,
2013-12-31 01:34:00,21.9,13.0,29.99,South,180,0.0,-999.0,68,-99.99,,,0.00,Acu-Link.com,2013-12-31 06:34:00,
2013-12-31 01:49:00,22.1,12.5,29.99,SSW,202,0.0,-999.0,66,-99.99,,,0.00,Acu-Link.com,2013-12-31 06:49:00,
2013-12-31 02:04:00,22.3,13.4,29.99,WNW,292,0.0,-999.0,68,-99.99,,,0.00,Acu-Link.com,2013-12-31 07:04:00,
2013-12-31 02:19:00,22.1,12.5,29.98,SSE,157,0.0,-999.0,66,-99.99,,,0.00,Acu-Link.com,2013-12-31 07:19:00,
2013-12-31 02:34:00,21.7,13.1,29.99,SW,225,1.1,-999.0,69,-99.99,,,0.00,Acu-Link.com,2013-12-31 07:34:00,
2013-12-31 02:49:00,21.6,13.0,29.99,SW,225,0.0,-999.0,69,-99.99,,,0.00,Acu-Link.com,2013-12-31 07:49:00,
2013-12-31 03:04:00,21.6,12.0,29.99,WSW,247,1.7,-999.0,66,-99.99,,,0.00,Acu-Link.com,2013-12-31 08:04:00,
2013-12-31 03:20:00,21.4,11.5,29.99,SW,225,2.2,-999.0,65,-99.99,,,0.00,Acu-Link.com,2013-12-31 08:20:00,
2013-12-31 03:35:00,21.9,12.0,29.98,East,90,1.7,-999.0,65,-99.99,,,0.00,Acu-Link.com,2013-12-31 08:35:00,
2013-12-31 03:50:00,21.6,11.3,29.98,ESE,112,0.0,-999.0,64,-99.99,,,0.00,Acu-Link.com,2013-12-31 08:50:00,
2013-12-31 04:05:00,21.4,11.5,29.96,SW,225,0.0,-999.0,65,-99.99,,,0.00,Acu-Link.com,2013-12-31 09:05:00,
2013-12-31 04:20:00,21.9,12.0,29.96,NNE,22,0.0,-999.0,65,-99.99,,,0.00,Acu-Link.com,2013-12-31 09:20:00,
2013-12-31 04:35:00,21.9,12.0,29.96,SSW,202,0.0,-999.0,65,-99.99,,,0.00,Acu-Link.com,2013-12-31 09:35:00,
2013-12-31 04:50:00,21.9,12.3,29.95,WSW,247,0.0,-999.0,66,-99.99,,,0.00,Acu-Link.com,2013-12-31 09:50:00,
2013-12-31 05:05:00,21.9,12.3,29.95,SSE,157,0.0,-999.0,66,-99.99,,,0.00,Acu-Link.com,2013-12-31 10:05:00,
2013-12-31 05:20:00,22.1,12.5,29.95,SW,225,0.0,-999.0,66,-99.99,,,0.00,Acu-Link.com,2013-12-31 10:20:00,
2013-12-31 05:36:00,21.7,12.5,29.94,East,90,0.0,-999.0,67,-99.99,,,0.00,Acu-Link.com,2013-12-31 10:36:00,
2013-12-31 05:51:00,22.3,13.4,29.94,SSE,157,0.0,-999.0,68,-99.99,,,0.00,Acu-Link.com,2013-12-31 10:51:00,
2013-12-31 06:06:00,22.1,13.2,29.94,North,0,0.0,-999.0,68,-99.99,,,0.00,Acu-Link.com,2013-12-31 11:06:00,
2013-12-31 06:21:00,21.9,14.0,29.95,NNW,337,0.0,-999.0,71,-99.99,,,0.00,Acu-Link.com,2013-12-31 11:21:00,
2013-12-31 06:36:00,21.9,15.2,29.95,SSE,157,0.0,-999.0,75,-99.99,,,0.00,Acu-Link.com,2013-12-31 11:36:00,
2013-12-31 06:51:00,21.9,15.8,29.95,SSE,157,0.0,-999.0,77,-99.99,,,0.00,Acu-Link.com,2013-12-31 11:51:00,
2013-12-31 07:06:00,21.2,16.9,29.94,ESE,112,0.0,-999.0,83,-99.99,,,0.00,Acu-Link.com,2013-12-31 12:06:00,
2013-12-31 07:21:00,21.6,17.3,29.94,SE,135,0.0,-999.0,83,-99.99,,,0.00,Acu-Link.com,2013-12-31 12:21:00,
2013-12-31 07:36:00,21.4,17.3,29.93,ESE,112,0.0,-999.0,84,-99.99,,,0.00,Acu-Link.com,2013-12-31 12:36:00,
2013-12-31 07:52:00,21.0,17.2,29.93,ESE,112,0.0,-999.0,85,-99.99,,,0.00,Acu-Link.com,2013-12-31 12:52:00,
2013-12-31 08:07:00,21.2,17.1,29.93,East,90,0.0,-999.0,84,-99.99,,,0.00,Acu-Link.com,2013-12-31 13:07:00,
2013-12-31 08:22:00,21.7,17.3,29.93,ESE,112,0.0,-999.0,83,-99.99,,,0.00,Acu-Link.com,2013-12-31 13:22:00,
2013-12-31 08:37:00,22.3,18.5,29.93,SSW,202,0.0,-999.0,85,-99.99,,,0.00,Acu-Link.com,2013-12-31 13:37:00,
2013-12-31 08:52:00,22.5,18.4,29.93,South,180,0.0,-999.0,84,-99.99,,,0.00,Acu-Link.com,2013-12-31 13:52:00,
2013-12-31 09:07:00,23.0,18.9,29.93,WNW,292,0.0,-999.0,84,-99.99,,,0.00,Acu-Link.com,2013-12-31 14:07:00,
2013-12-31 09:22:00,22.8,19.0,29.93,West,270,1.1,-999.0,85,-99.99,,,0.00,Acu-Link.com,2013-12-31 14:22:00,
2013-12-31 09:37:00,23.5,19.7,29.92,South,180,0.0,-999.0,85,-99.99,,,0.00,Acu-Link.com,2013-12-31 14:37:00,
2013-12-31 09:52:00,23.5,19.9,29.92,South,180,0.0,-999.0,86,-99.99,,,0.00,Acu-Link.com,2013-12-31 14:52:00,
2013-12-31 10:08:00,24.1,20.3,29.91,ENE,67,1.7,-999.0,85,-99.99,,,0.00,Acu-Link.com,2013-12-31 15:08:00,
2013-12-31 10:23:00,24.8,20.9,29.90,WSW,247,0.0,-999.0,85,-99.99,,,0.00,Acu-Link.com,2013-12-31 15:23:00,
2013-12-31 10:38:00,25.5,21.4,29.90,SSE,157,3.2,-999.0,84,-99.99,,,0.00,Acu-Link.com,2013-12-31 15:38:00,
2013-12-31 10:53:00,27.0,22.0,29.89,SSE,157,0.0,-999.0,81,-99.99,,,0.00,Acu-Link.com,2013-12-31 15:53:00,
2013-12-31 11:08:00,25.9,21.7,29.88,ESE,112,0.0,-999.0,84,-99.99,,,0.00,Acu-Link.com,2013-12-31 16:08:00,
2013-12-31 11:23:00,26.2,22.0,29.88,East,90,4.2,-999.0,84,-99.99,,,0.00,Acu-Link.com,2013-12-31 16:23:00,
2013-12-31 11:38:00,27.3,22.5,29.87,SE,135,0.0,-999.0,82,-99.99,,,0.00,Acu-Link.com,2013-12-31 16:38:00,
2013-12-31 11:53:00,28.6,21.1,29.87,NNW,337,8.9,-999.0,73,-99.99,,,0.00,Acu-Link.com,2013-12-31 16:53:00,
2013-12-31 12:08:00,29.7,20.5,29.87,NE,45,2.2,-999.0,68,-99.99,,,0.00,Acu-Link.com,2013-12-31 17:08:00,
2013-12-31 12:23:00,28.8,19.9,29.88,SSE,157,5.8,-999.0,69,-99.99,,,0.00,Acu-Link.com,2013-12-31 17:23:00,
2013-12-31 12:39:00,28.2,19.4,29.88,East,90,8.3,-999.0,69,-99.99,,,0.00,Acu-Link.com,2013-12-31 17:39:00,
2013-12-31 12:54:00,28.0,18.8,29.89,SE,135,0.0,-999.0,68,-99.99,,,0.00,Acu-Link.com,2013-12-31 17:54:00,
2013-12-31 13:09:00,28.2,15.3,29.89,NNW,337,8.9,-999.0,58,-99.99,,,0.00,Acu-Link.com,2013-12-31 18:09:00,
2013-12-31 13:24:00,28.6,14.9,29.89,NW,315,3.2,-999.0,56,-99.99,,,0.00,Acu-Link.com,2013-12-31 18:24:00,
2013-12-31 13:39:00,28.4,14.3,29.90,West,270,12.5,-999.0,55,-99.99,,,0.00,Acu-Link.com,2013-12-31 18:39:00,
2013-12-31 13:54:00,28.6,14.5,29.90,NNE,22,4.2,-999.0,55,-99.99,,,0.00,Acu-Link.com,2013-12-31 18:54:00,
2013-12-31 14:09:00,28.2,15.7,29.91,NE,45,6.3,-999.0,59,-99.99,,,0.00,Acu-Link.com,2013-12-31 19:09:00,
2013-12-31 14:24:00,28.0,14.4,29.92,SSE,157,2.7,-999.0,56,-99.99,,,0.00,Acu-Link.com,2013-12-31 19:24:00,
2013-12-31 14:40:00,27.7,14.5,29.94,WNW,292,13.0,-999.0,57,-99.99,,,0.00,Acu-Link.com,2013-12-31 19:40:00,
2013-12-31 14:55:00,27.1,13.9,29.94,South,180,10.4,-999.0,57,-99.99,,,0.00,Acu-Link.com,2013-12-31 19:55:00,
2013-12-31 15:10:00,28.8,13.4,29.94,NE,45,6.8,-999.0,52,-99.99,,,0.00,Acu-Link.com,2013-12-31 20:10:00,
2013-12-31 15:25:00,27.1,16.6,29.96,NE,45,6.8,-999.0,64,-99.99,,,0.00,Acu-Link.com,2013-12-31 20:25:00,
2013-12-31 15:40:00,25.5,16.8,29.98,WNW,292,10.4,-999.0,69,-99.99,,,0.00,Acu-Link.com,2013-12-31 20:40:00,
2013-12-31 15:55:00,24.6,13.5,29.97,NNE,22,10.9,-999.0,62,-99.99,,,0.00,Acu-Link.com,2013-12-31 20:55:00,
2013-12-31 16:10:00,23.9,11.3,29.98,West,270,2.7,-999.0,58,-99.99,,,0.00,Acu-Link.com,2013-12-31 21:10:00,
2013-12-31 16:25:00,23.5,10.9,29.99,WNW,292,7.3,-999.0,58,-99.99,,,0.00,Acu-Link.com,2013-12-31 21:25:00,
2013-12-31 16:40:00,23.0,10.8,29.98,NW,315,2.7,-999.0,59,-99.99,,,0.00,Acu-Link.com,2013-12-31 21:40:00,
2013-12-31 16:56:00,22.6,10.1,30.00,NNE,22,8.9,-999.0,58,-99.99,,,0.00,Acu-Link.com,2013-12-31 21:56:00,
2013-12-31 17:11:00,22.3,9.4,30.01,SSW,202,2.7,-999.0,57,-99.99,,,0.00,Acu-Link.com,2013-12-31 22:11:00,
2013-12-31 17:26:00,22.1,8.4,30.03,SW,225,8.9,-999.0,55,-99.99,,,0.00,Acu-Link.com,2013-12-31 22:26:00,
2013-12-31 17:41:00,21.7,8.8,30.04,WNW,292,4.2,-999.0,57,-99.99,,,0.00,Acu-Link.com,2013-12-31 22:41:00,
2013-12-31 17:56:00,21.6,8.8,30.03,WNW,292,4.7,-999.0,57,-99.99,,,0.00,Acu-Link.com,2013-12-31 22:56:00,
2013-12-31 18:11:00,21.4,8.9,30.04,NW,315,4.7,-999.0,58,-99.99,,,0.00,Acu-Link.com,2013-12-31 23:11:00,
2013-12-31 18:26:00,21.0,9.0,30.04,WNW,292,8.3,-999.0,59,-99.99,,,0.00,Acu-Link.com,2013-12-31 23:26:00,
2013-12-31 18:41:00,21.0,9.3,30.04,NW,315,3.7,-999.0,60,-99.99,,,0.00,Acu-Link.com,2013-12-31 23:41:00,
2013-12-31 18:56:00,20.8,9.1,30.04,NW,315,6.3,-999.0,60,-99.99,,,0.00,Acu-Link.com,2013-12-31 23:56:00,
2013-12-31 19:12:00,20.8,9.5,30.05,NNE,22,2.2,-999.0,61,-99.99,,,0.00,Acu-Link.com,2014-01-01 00:12:00,
2013-12-31 19:27:00,20.7,9.8,30.07,NNW,337,9.4,-999.0,62,-99.99,,,0.00,Acu-Link.com,2014-01-01 00:27:00,
2013-12-31 19:42:00,20.5,9.6,30.08,WNW,292,3.7,-999.0,62,-99.99,,,0.00,Acu-Link.com,2014-01-01 00:42:00,
2013-12-31 19:57:00,20.1,9.6,30.08,West,270,0.0,-999.0,63,-99.99,,,0.00,Acu-Link.com,2014-01-01 00:57:00,
2013-12-31 20:12:00,19.6,9.1,30.09,WSW,247,1.7,-999.0,63,-99.99,,,0.00,Acu-Link.com,2014-01-01 01:12:00,
2013-12-31 20:27:00,19.2,9.1,30.10,NW,315,3.2,-999.0,64,-99.99,,,0.00,Acu-Link.com,2014-01-01 01:27:00,
2013-12-31 20:42:00,19.6,8.7,30.10,WNW,292,4.7,-999.0,62,-99.99,,,0.00,Acu-Link.com,2014-01-01 01:42:00,
2013-12-31 20:57:00,19.9,9.4,30.10,NW,315,3.7,-999.0,63,-99.99,,,0.00,Acu-Link.com,2014-01-01 01:57:00,
2013-12-31 21:12:00,19.9,9.4,30.11,SW,225,2.2,-999.0,63,-99.99,,,0.00,Acu-Link.com,2014-01-01 02:12:00,
2013-12-31 21:28:00,20.1,9.9,30.11,WNW,292,4.2,-999.0,64,-99.99,,,0.00,Acu-Link.com,2014-01-01 02:28:00,
2013-12-31 21:43:00,20.1,10.3,30.12,West,270,5.3,-999.0,65,-99.99,,,0.00,Acu-Link.com,2014-01-01 02:43:00,
2013-12-31 21:58:00,20.5,10.3,30.12,NNW,337,7.8,-999.0,64,-99.99,,,0.00,Acu-Link.com,2014-01-01 02:58:00,
2013-12-31 22:13:00,20.8,10.9,30.12,WNW,292,4.7,-999.0,65,-99.99,,,0.00,Acu-Link.com,2014-01-01 03:13:00,
2013-12-31 22:28:00,21.0,10.8,30.13,West,270,1.1,-999.0,64,-99.99,,,0.00,Acu-Link.com,2014-01-01 03:28:00,
2013-12-31 22:43:00,21.2,11.3,30.12,NW,315,2.7,-999.0,65,-99.99,,,0.00,Acu-Link.com,2014-01-01 03:43:00,
2013-12-31 22:58:00,21.4,11.5,30.12,WNW,292,3.7,-999.0,65,-99.99,,,0.00,Acu-Link.com,2014-01-01 03:58:00,
2013-12-31 23:13:00,21.4,11.8,30.12,NW,315,4.2,-999.0,66,-99.99,,,0.00,Acu-Link.com,2014-01-01 04:13:00,
2013-12-31 23:28:00,21.7,12.8,30.12,WNW,292,0.0,-999.0,68,-99.99,,,0.00,Acu-Link.com,2014-01-01 04:28:00,
2013-12-31 23:44:00,21.6,12.0,30.12,ESE,112,0.0,-999.0,66,-99.99,,,0.00,Acu-Link.com,2014-01-01 04:44:00,
2013-12-31 23:59:00,21.6,12.4,30.13,West,270,3.7,-999.0,67,-99.99,,,0.00,Acu-Link.com,2014-01-01 04:59:00,